Voltar ao catálogo

SCOUT A DEB

AtivoPO
NORAD 3213·DEBRIS·🇺🇸 United States

Lançado Mar 2, 1968 de Vandenberg Space Force Base

Loading…

Próximas Passagens (próximas 24 horas)

TLE

AtualizadoSource: Space-Track

Época: Sep 14, 2026, 01:28 UTC

1 03213U 68012C   26257.06153462  .00000378  00000-0  29818-3 0  9994
2 03213  90.1966 115.4358 0053827  72.4432  80.8474 13.89375531622787

Acompanhe SCOUT A DEB em tempo real com AllMySat

Download on the App Store